LHA4MK KBZN-KBFI

Flight info

Callsign LHA4MK
Flight time N/A
Altitude 38000
Route BGSKY2 HIA MLP GLASR3
Aircraft A320/M-SDE1E2FGIJ1RWYZE3/LB1

Departure

Time 2026-04-24 13:49
Airport Bozeman Yellowstone International Airport (KBZN)

Arrival

Time N/A
Airport King County International Airport - Boeing Field (KBFI)
Time Latitude Longitude Altitude Speed Heading
2026-04-24 13:33 45.77822 -111.15980 4458 ft 0 kts 249°
2026-04-24 13:39 45.77826 -111.15964 4458 ft 4 kts 247°
2026-04-24 13:39 45.77837 -111.15929 4458 ft 4 kts 246°
2026-04-24 13:39 45.77844 -111.15895 4457 ft 4 kts 284°
2026-04-24 13:39 45.77839 -111.15879 4457 ft 1 kts 316°
2026-04-24 13:40 45.77838 -111.15878 4457 ft 0 kts 316°
2026-04-24 13:42 45.77845 -111.15888 4457 ft 3 kts 316°
2026-04-24 13:42 45.77866 -111.15917 4457 ft 6 kts 316°
2026-04-24 13:42 45.77907 -111.15941 4456 ft 6 kts 26°
2026-04-24 13:43 45.77959 -111.15902 4455 ft 11 kts
2026-04-24 13:43 45.78024 -111.15969 4454 ft 13 kts 314°
2026-04-24 13:43 45.78098 -111.16073 4453 ft 16 kts 316°
2026-04-24 13:43 45.78188 -111.16196 4451 ft 19 kts 315°
2026-04-24 13:44 45.78292 -111.16341 4450 ft 22 kts 316°
2026-04-24 13:44 45.78404 -111.16496 4448 ft 23 kts 315°
2026-04-24 13:44 45.78526 -111.16664 4447 ft 25 kts 316°
2026-04-24 13:44 45.78632 -111.16810 4446 ft 15 kts 329°
2026-04-24 13:45 45.78718 -111.16763 4445 ft 16 kts 52°
2026-04-24 13:45 45.78734 -111.16735 4445 ft 0 kts 51°
2026-04-24 13:47 45.78735 -111.16733 4445 ft 1 kts 51°
2026-04-24 13:47 45.78745 -111.16715 4445 ft 5 kts 56°
2026-04-24 13:47 45.78760 -111.16604 4447 ft 13 kts 94°
2026-04-24 13:48 45.78699 -111.16490 4447 ft 24 kts 135°
2026-04-24 13:48 45.78390 -111.16059 4449 ft 97 kts 136°
2026-04-24 13:48 45.77774 -111.15195 4459 ft 149 kts 134°
2026-04-24 13:48 45.76986 -111.14112 4968 ft 160 kts 136°
2026-04-24 13:49 45.76040 -111.13233 5518 ft 169 kts 169°
2026-04-24 13:49 45.74882 -111.13499 5919 ft 174 kts 208°
2026-04-24 13:49 45.73763 -111.14292 6358 ft 188 kts 207°
2026-04-24 13:49 45.72521 -111.15160 6694 ft 210 kts 206°
2026-04-24 13:50 45.71178 -111.16081 7323 ft 217 kts 207°
2026-04-24 13:50 45.69791 -111.17021 7900 ft 226 kts 207°
2026-04-24 13:50 45.68809 -111.17684 8217 ft 237 kts 207°
2026-04-24 13:50 45.67259 -111.18727 8715 ft 255 kts 208°
2026-04-24 13:51 45.65827 -111.20257 9055 ft 260 kts 236°
2026-04-24 13:51 45.65245 -111.22693 9250 ft 271 kts 273°
2026-04-24 13:51 45.65598 -111.25368 9935 ft 278 kts 290°
2026-04-24 13:51 45.66308 -111.27963 10723 ft 282 kts 294°
2026-04-24 13:52 45.67093 -111.30525 11636 ft 281 kts 294°
2026-04-24 13:52 45.67865 -111.33148 12270 ft 291 kts 292°
2026-04-24 13:52 45.68589 -111.35843 13023 ft 296 kts 290°
2026-04-24 13:52 45.69275 -111.38630 13845 ft 298 kts 289°
2026-04-24 13:53 45.69927 -111.41452 14583 ft 300 kts 288°
2026-04-24 13:53 45.70559 -111.44303 15265 ft 302 kts 287°
2026-04-24 13:53 45.71186 -111.47181 15987 ft 304 kts 287°
2026-04-24 13:53 45.71814 -111.50082 16710 ft 306 kts 287°
2026-04-24 13:54 45.72446 -111.53007 17406 ft 309 kts 287°
2026-04-24 13:54 45.73097 -111.56021 17658 ft 326 kts 287°
2026-04-24 13:54 45.73788 -111.59205 17818 ft 344 kts 288°
2026-04-24 13:54 45.74511 -111.62524 18189 ft 354 kts 288°
2026-04-24 13:55 45.75249 -111.65908 18738 ft 358 kts 288°
2026-04-24 13:55 45.75992 -111.69323 19277 ft 361 kts 288°
2026-04-24 13:55 45.76740 -111.72774 19830 ft 364 kts 288°
2026-04-24 13:55 45.77488 -111.76257 20405 ft 367 kts 288°
2026-04-24 13:56 45.78241 -111.79768 20952 ft 370 kts 288°
2026-04-24 13:56 45.79001 -111.83313 21487 ft 373 kts 288°
2026-04-24 13:56 45.79766 -111.86879 21997 ft 376 kts 288°
2026-04-24 13:56 45.80540 -111.90481 22510 ft 379 kts 288°
2026-04-24 13:57 45.81315 -111.94104 23018 ft 382 kts 288°
2026-04-24 13:57 45.82095 -111.97756 23511 ft 385 kts 288°
2026-04-24 13:57 45.82882 -112.01440 23949 ft 388 kts 288°
2026-04-24 13:57 45.83671 -112.05147 24342 ft 390 kts 288°
2026-04-24 13:58 45.84467 -112.08887 24702 ft 394 kts 289°
2026-04-24 13:58 45.85281 -112.12721 24995 ft 399 kts 288°
2026-04-24 13:58 45.86235 -112.16468 25339 ft 401 kts 296°
2026-04-24 13:58 45.87603 -112.19894 25698 ft 402 kts 305°
2026-04-24 13:59 45.89218 -112.23186 26045 ft 405 kts 306°
2026-04-24 13:59 45.90858 -112.26544 26439 ft 406 kts 305°
2026-04-24 13:59 45.92479 -112.29884 26827 ft 409 kts 305°
2026-04-24 13:59 45.94086 -112.33196 27190 ft 411 kts 305°
2026-04-24 14:00 45.95724 -112.36581 27552 ft 414 kts 305°
2026-04-24 14:00 45.97375 -112.39993 27927 ft 417 kts 305°
2026-04-24 14:00 45.99035 -112.43423 28288 ft 420 kts 306°
2026-04-24 14:00 46.00712 -112.46895 28579 ft 425 kts 305°
2026-04-24 14:01 46.02402 -112.50400 29050 ft 428 kts 305°
2026-04-24 14:01 46.04102 -112.53934 29425 ft 430 kts 305°
2026-04-24 14:01 46.05809 -112.57483 29843 ft 431 kts 305°
2026-04-24 14:01 46.07513 -112.61030 30351 ft 430 kts 305°
2026-04-24 14:02 46.09215 -112.64570 30793 ft 429 kts 305°
2026-04-24 14:02 46.10912 -112.68104 31223 ft 429 kts 305°
2026-04-24 14:02 46.12604 -112.71640 31645 ft 428 kts 304°
2026-04-24 14:02 46.14293 -112.75181 32055 ft 429 kts 305°
2026-04-24 14:03 46.15984 -112.78731 32433 ft 430 kts 305°
2026-04-24 14:03 46.17679 -112.82286 32843 ft 430 kts 305°
2026-04-24 14:03 46.19373 -112.85836 33269 ft 430 kts 305°
2026-04-24 14:03 46.21066 -112.89391 33707 ft 429 kts 305°
2026-04-24 14:04 46.22755 -112.92940 34138 ft 429 kts 304°
2026-04-24 14:04 46.24443 -112.96492 34505 ft 428 kts 305°
2026-04-24 14:04 46.26126 -113.00039 34879 ft 427 kts 305°
2026-04-24 14:04 46.27807 -113.03586 35223 ft 427 kts 304°
2026-04-24 14:05 46.29484 -113.07133 35520 ft 428 kts 305°
2026-04-24 14:05 46.31164 -113.10693 35809 ft 429 kts 305°
2026-04-24 14:05 46.32843 -113.14258 36111 ft 429 kts 305°
2026-04-24 14:05 46.34524 -113.17830 36411 ft 429 kts 305°
2026-04-24 14:06 46.36204 -113.21398 36710 ft 429 kts 305°
2026-04-24 14:06 46.37885 -113.24973 37004 ft 429 kts 304°
2026-04-24 14:06 46.39566 -113.28552 37278 ft 429 kts 304°
2026-04-24 14:06 46.41244 -113.32127 37554 ft 429 kts 304°
2026-04-24 14:07 46.42922 -113.35710 37822 ft 430 kts 304°
2026-04-24 14:07 46.44595 -113.39295 38056 ft 430 kts 304°
2026-04-24 14:07 46.47965 -113.46526 38142 ft 435 kts 304°
2026-04-24 14:08 46.51353 -113.53815 38146 ft 436 kts 304°
2026-04-24 14:08 46.54743 -113.61108 38153 ft 436 kts 304°
2026-04-24 14:09 46.58129 -113.68426 38130 ft 436 kts 304°
2026-04-24 14:09 46.61510 -113.75753 38154 ft 437 kts 304°
2026-04-24 14:10 46.64871 -113.83047 38153 ft 437 kts 304°
2026-04-24 14:10 46.68257 -113.90406 38148 ft 437 kts 304°
2026-04-24 14:11 46.71632 -113.97778 38143 ft 438 kts 304°
2026-04-24 14:12 46.76696 -114.08866 38132 ft 438 kts 304°
2026-04-24 14:12 46.80065 -114.16269 38131 ft 438 kts 304°
2026-04-24 14:13 46.83430 -114.23690 38130 ft 439 kts 304°
2026-04-24 14:13 46.86794 -114.31133 38137 ft 439 kts 304°
2026-04-24 14:14 46.90155 -114.38571 38166 ft 439 kts 304°
2026-04-24 14:14 46.95197 -114.49762 38165 ft 439 kts 304°
2026-04-24 14:15 46.98544 -114.57237 38173 ft 439 kts 304°
2026-04-24 14:15 47.01884 -114.64721 38175 ft 439 kts 304°
2026-04-24 14:16 47.05222 -114.72202 38169 ft 439 kts 304°
2026-04-24 14:17 47.10232 -114.83448 38176 ft 439 kts 304°
2026-04-24 14:17 47.15240 -114.94731 38175 ft 440 kts 304°
2026-04-24 14:18 47.18566 -115.02268 38173 ft 440 kts 304°
2026-04-24 14:18 47.21883 -115.09832 38176 ft 440 kts 304°
2026-04-24 14:19 47.25197 -115.17395 38181 ft 440 kts 304°
2026-04-24 14:19 47.28514 -115.24974 38181 ft 440 kts 304°
2026-04-24 14:20 47.31830 -115.32565 38180 ft 440 kts 304°
2026-04-24 14:20 47.35139 -115.40165 38175 ft 441 kts 305°
2026-04-24 14:21 47.38446 -115.47791 38177 ft 441 kts 304°
2026-04-24 14:21 47.41748 -115.55437 38185 ft 442 kts 304°
2026-04-24 14:22 47.44828 -115.63295 38184 ft 445 kts 294°
2026-04-24 14:22 47.46169 -115.72241 38183 ft 451 kts 278°
2026-04-24 14:23 47.46445 -115.76855 38178 ft 451 kts 278°
2026-04-24 14:23 47.47013 -115.86096 38163 ft 452 kts 278°
2026-04-24 14:24 47.47587 -115.95342 38180 ft 452 kts 278°
2026-04-24 14:24 47.48149 -116.04597 38199 ft 452 kts 278°
2026-04-24 14:25 47.48608 -116.12278 38205 ft 452 kts 278°
2026-04-24 14:25 47.49237 -116.23092 38208 ft 452 kts 278°
2026-04-24 14:26 47.49774 -116.32346 38211 ft 452 kts 278°
2026-04-24 14:26 47.50297 -116.41606 38208 ft 452 kts 278°
2026-04-24 14:27 47.50810 -116.50861 38204 ft 451 kts 278°
2026-04-24 14:27 47.51327 -116.60109 38206 ft 451 kts 278°
2026-04-24 14:28 47.51832 -116.69350 38210 ft 451 kts 278°
2026-04-24 14:28 47.52325 -116.78605 38209 ft 451 kts 278°
2026-04-24 14:29 47.52810 -116.87798 38196 ft 451 kts 278°
2026-04-24 14:29 47.53289 -116.97049 38203 ft 451 kts 278°
2026-04-24 14:30 47.53689 -117.04800 38194 ft 451 kts 278°
2026-04-24 14:30 47.54237 -117.15553 38201 ft 451 kts 278°
2026-04-24 14:31 47.54693 -117.24810 38192 ft 451 kts 277°
2026-04-24 14:31 47.55139 -117.34069 38168 ft 451 kts 277°
2026-04-24 14:32 47.55584 -117.43324 38171 ft 451 kts 277°
2026-04-24 14:32 47.56025 -117.52574 38176 ft 450 kts 277°
2026-04-24 14:33 47.56454 -117.61828 38155 ft 450 kts 277°
2026-04-24 14:33 47.57120 -117.71027 38158 ft 448 kts 282°
2026-04-24 14:34 47.57918 -117.78600 38157 ft 448 kts 283°
2026-04-24 14:34 47.58907 -117.87759 38148 ft 448 kts 282°
2026-04-24 14:35 47.59795 -117.96834 38165 ft 448 kts 281°
2026-04-24 14:35 47.60636 -118.06029 38184 ft 447 kts 281°
2026-04-24 14:36 47.61470 -118.15163 38195 ft 447 kts 281°
2026-04-24 14:36 47.62308 -118.24297 38195 ft 447 kts 281°
2026-04-24 14:37 47.63140 -118.33426 38212 ft 447 kts 281°
2026-04-24 14:37 47.63967 -118.42556 38201 ft 447 kts 282°
2026-04-24 14:38 47.64785 -118.51682 38227 ft 446 kts 281°
2026-04-24 14:38 47.65592 -118.60790 38227 ft 446 kts 281°
2026-04-24 14:39 47.66387 -118.69906 38246 ft 445 kts 281°
2026-04-24 14:39 47.67179 -118.79013 38248 ft 445 kts 281°
2026-04-24 14:40 47.67967 -118.88113 38233 ft 445 kts 281°
2026-04-24 14:40 47.68746 -118.97222 38246 ft 445 kts 281°
2026-04-24 14:41 47.69514 -119.06334 38250 ft 445 kts 281°
2026-04-24 14:41 47.70280 -119.15453 38273 ft 445 kts 281°
2026-04-24 14:42 47.71040 -119.24571 38280 ft 445 kts 281°
2026-04-24 14:42 47.71787 -119.33702 38292 ft 445 kts 281°
2026-04-24 14:43 47.72526 -119.42834 38203 ft 446 kts 281°
2026-04-24 14:43 47.73264 -119.51971 38229 ft 445 kts 281°
2026-04-24 14:44 47.74003 -119.61102 38201 ft 445 kts 281°
2026-04-24 14:44 47.74723 -119.70244 38209 ft 445 kts 281°
2026-04-24 14:45 47.75433 -119.79380 38207 ft 445 kts 281°
2026-04-24 14:45 47.76139 -119.88528 37583 ft 446 kts 281°
2026-04-24 14:45 47.76490 -119.93097 37032 ft 444 kts 281°
2026-04-24 14:46 47.76837 -119.97653 36329 ft 445 kts 282°
2026-04-24 14:46 47.77186 -120.02237 35624 ft 447 kts 283°
2026-04-24 14:46 47.77535 -120.06834 34973 ft 447 kts 283°
2026-04-24 14:46 47.77875 -120.11403 34383 ft 443 kts 284°
2026-04-24 14:47 47.78209 -120.15941 33473 ft 440 kts 284°
2026-04-24 14:47 47.78543 -120.20465 32317 ft 440 kts 284°
2026-04-24 14:47 47.78878 -120.24982 31107 ft 441 kts 284°
2026-04-24 14:47 47.79214 -120.29508 29925 ft 439 kts 285°
2026-04-24 14:48 47.79538 -120.33984 29177 ft 427 kts 285°
2026-04-24 14:48 47.79838 -120.38294 28627 ft 412 kts 285°
2026-04-24 14:48 47.80132 -120.42486 28014 ft 405 kts 285°
2026-04-24 14:48 47.80431 -120.46627 27393 ft 401 kts 285°
2026-04-24 14:49 47.80729 -120.50735 26785 ft 397 kts 286°
2026-04-24 14:49 47.81024 -120.54802 26179 ft 394 kts 286°
2026-04-24 14:49 47.81314 -120.58849 25576 ft 392 kts 286°
2026-04-24 14:49 47.81598 -120.62861 24969 ft 389 kts 286°
2026-04-24 14:50 47.81878 -120.66847 24396 ft 386 kts 286°
2026-04-24 14:50 47.82155 -120.70822 23807 ft 385 kts 286°
2026-04-24 14:50 47.82430 -120.74774 23178 ft 383 kts 286°
2026-04-24 14:50 47.82698 -120.78690 22621 ft 379 kts 286°
2026-04-24 14:51 47.82960 -120.82568 22072 ft 375 kts 286°
2026-04-24 14:51 47.83220 -120.86420 21549 ft 372 kts 286°
2026-04-24 14:51 47.83477 -120.90233 21032 ft 369 kts 286°
2026-04-24 14:51 47.83733 -120.94024 20529 ft 367 kts 286°
2026-04-24 14:52 47.83991 -120.97790 20023 ft 365 kts 286°
2026-04-24 14:52 47.84246 -121.01532 19524 ft 361 kts 286°
2026-04-24 14:52 47.84498 -121.05237 19034 ft 358 kts 285°
2026-04-24 14:52 47.84745 -121.08923 18526 ft 357 kts 285°
2026-04-24 14:53 47.84991 -121.12597 17950 ft 355 kts 285°
2026-04-24 14:53 47.85232 -121.16245 17270 ft 356 kts 285°
2026-04-24 14:53 47.85474 -121.19901 16652 ft 352 kts 284°
2026-04-24 14:53 47.85709 -121.23515 16110 ft 350 kts 284°
2026-04-24 14:54 47.85941 -121.27104 15568 ft 347 kts 283°
2026-04-24 14:54 47.86173 -121.30673 15014 ft 346 kts 283°
2026-04-24 14:54 47.86399 -121.34234 14470 ft 346 kts 283°